Vorticity
9 10 11 12 13 11 10 11 11 11 10 9 11 12 12 11 11 11 8 9 21 30 30 35 50 55 38 11 -4 2 9 5 1 2 -0 -6 -9 -6 2 6 0 -5 4 15 13 8 6 9 17 17 5 -4 -8 -5 21 41 24 13 29 36 20 5 -0 -10 -20 -10 11 14 -3 -19 -21 -29 -34 -18
8 9 11 12 13 11 11 11 11 11 10 9 11 13 13 12 10 11 11 7 11 25 30 33 46 53 47 29 2 -9 4 9 1 2 5 2 -1 -4 -2 10 16 8 -7 -16 -14 -5 0 -3 -4 6 14 11 3 -12 -17 8 33 28 19 33 42 25 7 1 -6 -12 -7 4 8 -4 -20 -28 -31 -17
7 9 11 12 13 11 11 12 11 11 11 9 10 12 13 13 11 9 12 10 6 14 26 33 41 48 48 42 19 -8 -9 2 -1 -2 5 5 3 3 -1 1 12 20 12 -4 -15 -22 -23 -17 -13 -11 0 10 15 13 -7 -25 -2 34 34 23 38 48 32 13 1 -3 -5 -6 0 2 -6 -10 -16 -26
5 8 10 11 12 12 11 12 12 10 10 9 9 12 14 13 12 11 11 12 9 6 16 29 38 45 45 44 37 11 -9 -8 -9 -9 0 2 1 7 6 1 5 14 20 18 12 3 -7 -8 -5 -8 -4 5 6 13 18 -9 -36 -8 30 26 20 38 51 43 22 3 -2 -4 -4 0 -3 -6 -2 -8
5 6 10 11 11 12 11 11 11 10 10 11 9 10 15 14 11 12 11 11 11 7 8 19 34 45 45 41 44 34 10 -6 -12 -12 -4 -3 -5 3 6 0 -0 5 12 19 20 22 24 19 10 0 -2 7 9 3 14 16 -20 -38 -2 26 19 18 33 46 48 35 17 4 -3 -0 2 -2 -3 -3
5 7 8 10 11 12 12 11 10 11 10 11 11 9 13 16 12 11 13 11 11 11 7 8 21 39 46 42 42 45 34 12 -6 -14 -7 -2 -5 -1 5 -0 -9 -11 -10 -2 8 14 21 29 29 19 9 10 17 11 5 16 10 -23 -22 12 22 18 22 23 31 45 46 33 17 4 -2 -1 4 2
5 8 7 8 12 11 12 11 9 11 11 10 11 11 11 15 15 11 12 12 11 12 11 7 9 23 40 46 42 43 45 36 16 -6 -12 -4 -5 -8 3 9 1 -6 -11 -13 -3 6 8 16 27 29 23 16 18 23 12 10 21 3 -19 1 20 15 16 17 12 16 29 39 42 35 18 0 -2 8
6 9 6 6 12 12 10 12 10 9 12 10 9 11 12 14 16 14 12 13 12 11 12 10 7 11 24 40 47 44 43 44 39 17 -8 -13 -8 -7 -1 7 6 4 4 0 -2 3 5 6 13 17 18 12 8 19 22 12 21 20 -12 -14 16 19 7 8 10 6 7 15 25 40 50 38 13 1
7 8 8 7 12 13 9 10 11 9 9 11 10 10 13 14 16 17 13 12 13 11 11 10 9 9 10 22 41 49 46 43 45 38 15 -10 -14 -2 5 3 2 3 5 6 2 3 6 7 11 12 10 9 4 8 20 15 15 28 7 -25 -11 18 16 6 7 10 11 16 18 20 34 50 49 33
10 8 8 10 11 11 11 10 11 11 8 10 11 10 12 15 16 18 16 13 12 11 10 10 9 9 9 9 22 41 51 49 45 43 40 20 -6 -6 11 11 7 9 9 6 4 7 11 8 10 16 12 11 13 10 14 14 7 19 28 -3 -30 -11 15 12 5 8 9 15 25 22 13 17 33 46
11 11 9 11 11 8 11 11 9 11 10 9 11 11 12 15 17 18 17 14 13 11 9 10 9 8 9 8 8 22 40 52 52 41 39 45 26 0 2 13 13 12 12 11 8 7 12 10 6 14 16 13 15 11 9 16 11 6 23 26 -8 -25 -2 14 11 13 14 11 17 21 14 8 10 19
9 15 12 10 11 9 9 12 10 9 10 9 10 11 12 14 16 17 18 15 13 13 10 9 10 8 8 10 7 10 22 38 56 52 33 38 49 29 3 -3 5 12 11 11 12 6 8 13 9 7 11 11 8 3 2 14 22 11 11 27 20 -10 -13 6 13 14 15 11 11 13 12 11 12 13
6 14 17 11 10 10 8 10 11 9 9 10 9 11 12 13 15 15 17 16 13 14 13 10 11 11 9 12 10 8 14 23 42 61 50 33 42 50 30 -3 -14 0 10 6 7 7 6 11 14 9 6 3 -3 -6 -5 0 14 21 12 17 29 11 -13 -11 -1 3 6 7 8 9 12 15 14 14
5 9 18 15 10 11 9 8 11 9 8 10 9 10 11 11 14 15 14 16 15 14 16 14 13 14 11 12 14 12 14 18 23 44 58 47 36 45 52 29 -7 -17 -2 4 1 -1 -4 -5 -1 3 5 4 -4 -10 -8 -7 -2 11 14 13 23 24 2 -18 -26 -25 -18 -6 3 4 6 13 15 13
6 7 15 19 14 11 9 7 10 9 8 10 9 9 11 10 11 14 13 14 16 15 17 17 15 16 14 13 16 16 14 16 17 24 43 54 47 39 44 50 31 -2 -17 -9 -2 -4 -6 -8 -10 -12 -9 -1 2 -4 -4 0 -1 2 8 10 16 26 24 4 -20 -34 -34 -22 -5 1 -2 0 5 8
6 7 11 20 18 12 8 7 9 9 8 12 10 7 10 11 9 12 11 11 14 15 15 16 14 13 15 13 12 13 11 11 14 18 26 41 52 51 43 44 54 40 3 -18 -13 -3 3 6 5 3 -1 -2 3 3 1 3 5 4 4 6 7 15 28 29 15 -2 -15 -20 -12 -3 -6 -12 -10 -4
5 8 9 18 21 13 8 7 8 8 8 11 13 8 7 11 9 9 10 8 9 10 7 6 7 6 8 11 9 9 10 10 10 12 18 28 40 53 55 44 47 61 46 10 -13 -13 -0 11 12 14 15 9 2 2 1 0 2 2 -0 0 0 -0 9 25 31 25 10 -9 -18 -14 -13 -19 -20 -13
5 8 8 15 21 15 9 8 7 8 8 9 14 12 6 9 10 7 8 7 4 4 1 -0 3 5 7 9 10 10 9 9 11 9 10 19 27 36 51 51 44 52 59 47 20 -7 -15 -1 11 11 11 11 7 2 1 2 2 0 -4 -5 -2 -3 -3 4 17 29 32 20 2 -13 -24 -28 -26 -19
7 7 8 12 20 18 10 9 8 7 8 8 13 15 9 7 10 7 6 6 3 2 1 1 4 9 11 12 11 11 9 7 12 13 8 11 19 26 39 50 50 50 52 54 51 30 -4 -19 -6 7 7 5 6 5 4 5 7 8 8 5 6 8 7 2 1 8 21 32 32 12 -15 -29 -28 -26
11 7 9 11 19 19 10 8 9 7 7 8 11 16 13 8 8 8 5 5 4 3 1 3 8 11 12 14 12 11 11 9 9 12 12 11 11 17 30 42 48 53 54 50 51 55 39 3 -18 -12 -1 2 3 5 4 2 2 6 11 13 13 13 14 14 10 5 3 12 27 29 16 4 -2 -9
16 8 11 12 18 20 10 7 9 7 7 8 9 15 17 11 7 7 6 5 3 2 2 5 11 12 11 13 14 12 11 11 10 9 11 15 12 10 19 36 46 49 54 57 51 50 58 48 15 -12 -16 -10 -3 2 3 1 -2 -2 1 6 11 11 9 11 14 15 11 7 11 19 22 21 21 18
20 8 11 14 18 19 11 7 9 7 7 8 8 12 18 17 10 5 5 5 2 1 5 8 11 13 12 12 13 14 11 10 11 11 10 12 14 12 11 23 43 52 49 53 56 49 49 59 53 26 -2 -17 -16 -7 -0 2 0 -1 -1 -1 3 8 8 5 5 8 12 12 11 13 15 16 19 23
23 9 10 16 20 19 11 7 8 7 7 7 7 10 16 18 16 10 5 4 4 5 8 10 10 11 13 14 14 14 13 11 10 11 13 14 14 16 14 14 30 50 52 46 50 52 47 48 56 55 36 8 -11 -13 -6 -1 0 0 1 -1 -2 1 5 5 3 0 -0 2 4 6 10 12 11 12
26 10 9 17 21 18 11 7 8 7 7 7 7 9 14 16 19 17 11 8 9 10 10 10 10 10 12 15 16 13 11 11 11 9 12 16 15 15 16 14 19 37 53 52 47 48 50 48 48 54 56 42 17 -3 -10 -5 -1 -2 -3 -2 -3 -4 -2 2 5 4 2 1 -0 -2 -1 1 3 6
27 10 10 18 21 18 11 7 8 6 5 7 7 9 12 15 19 20 16 13 13 11 10 10 10 12 14 14 14 12 9 9 10 9 8 11 13 14 14 13 14 23 42 55 52 45 46 50 49 48 52 55 46 25 3 -7 -4 -2 -4 -6 -6 -4 -2 -1 -1 1 2 4 6 6 5 2 1 5
27 10 12 20 20 17 11 6 8 6 4 5 7 9 11 13 18 20 16 14 13 9 10 11 10 11 14 13 10 10 10 9 7 7 7 7 8 10 12 13 12 14 26 44 54 49 43 45 48 46 44 46 50 47 32 11 -1 -4 -4 -6 -7 -6 -4 -2 -1 -1 -2 -2 0 3 7 10 9 8
24 9 14 20 18 16 11 6 7 6 4 4 5 8 10 12 16 18 14 12 12 10 9 11 11 11 11 11 10 8 8 9 7 5 6 7 6 5 6 11 13 11 13 25 42 49 47 43 44 47 50 49 46 45 44 35 21 6 -3 -7 -7 -6 -6 -5 -2 1 2 1 0 -1 -1 1 5 9
20 9 16 19 17 16 11 6 7 5 3 4 5 7 10 11 13 15 14 11 11 11 11 10 10 11 11 10 10 9 7 7 8 7 5 5 5 4 2 5 9 10 10 13 23 37 47 47 43 41 46 53 56 53 46 41 37 29 17 5 -3 -6 -6 -5 -3 -1 1 0 1 2 2 0 -2 0
16 11 18 17 16 17 10 5 7 6 3 4 4 6 9 10 11 13 14 13 11 10 11 10 9 10 11 10 8 8 7 6 6 7 6 4 4 4 3 3 4 6 7 8 10 18 30 41 47 46 41 41 49 57 58 51 43 38 33 26 16 5 -3 -6 -5 -3 -1 -1 -2 -2 0 3 3 1
13 13 18 14 14 18 12 6 7 6 4 3 4 6 7 8 9 11 12 14 14 12 10 10 10 9 9 10 10 8 8 8 7 6 6 6 6 5 4 4 4 4 4 5 6 7 12 21 33 44 48 45 41 43 51 57 55 49 41 34 31 25 16 7 0 -3 -3 -2 -1 -1 -2 -1 1 3
11 17 18 12 15 18 12 7 6 6 5 3 2 4 6 7 7 9 10 12 14 14 12 9 9 9 8 9 10 9 7 8 8 8 7 6 6 6 5 5 5 5 5 4 4 4 4 6 12 20 32 44 47 45 43 44 50 54 52 45 38 33 29 23 16 10 4 -1 -2 -0 0 -1 -1 1
12 21 18 10 14 17 11 7 8 8 5 3 3 3 4 6 6 6 8 10 11 13 14 11 9 8 8 8 8 8 8 7 7 8 8 8 7 7 7 7 6 6 7 7 6 5 3 2 3 4 8 18 30 40 47 47 44 46 49 50 48 43 37 31 25 21 18 13 7 4 3 2 1 0
16 21 15 10 13 16 13 9 8 8 5 2 3 3 2 3 5 4 5 7 9 10 11 12 11 9 9 8 7 7 7 7 7 7 7 8 9 8 9 10 8 7 7 7 7 8 7 5 4 3 3 3 6 14 27 39 44 46 47 47 48 49 47 41 34 28 23 21 19 15 10 8 7 6
19 17 12 11 13 15 15 10 6 6 5 3 3 3 2 2 3 3 4 5 6 8 9 9 11 11 10 10 9 8 7 6 7 7 6 6 8 9 10 11 10 8 8 8 8 8 9 8 8 6 5 4 3 4 7 13 22 32 40 45 47 47 48 48 46 40 32 24 20 19 17 14 12 11
20 14 11 13 13 15 16 11 6 5 5 4 3 2 2 3 2 1 3 3 3 5 6 7 8 10 11 11 11 10 9 8 7 7 6 5 6 7 7 8 10 11 11 9 8 8 8 8 9 9 8 7 6 6 6 7 8 11 18 29 38 43 45 47 48 47 45 38 28 21 18 17 16 14
18 12 13 13 12 15 16 13 10 7 4 4 5 3 2 3 2 1 2 2 2 3 3 4 6 6 8 10 11 11 11 10 8 7 6 5 5 4 4 6 8 10 12 12 9 8 9 8 7 7 10 12 11 10 10 9 9 9 8 12 19 28 36 42 44 43 45 47 44 36 27 20 17 16
14 12 13 12 13 16 17 14 11 8 5 4 5 4 3 2 2 2 2 1 2 2 2 2 4 4 5 6 8 10 11 11 11 9 6 5 5 3 3 4 5 8 11 12 10 8 9 10 9 9 12 14 15 15 13 11 10 12 12 12 13 14 19 27 36 41 42 42 44 46 43 36 29 23
12 12 12 14 16 16 16 15 12 9 8 7 5 5 5 4 3 3 3 2 2 2 2 2 2 3 4 5 5 7 10 12 13 12 9 6 5 4 3 3 4 7 10 11 11 10 12 15 14 12 14 17 17 15 14 13 13 12 13 13 14 14 12 14 20 29 37 41 42 41 42 43 42 38
13 13 13 16 18 16 15 15 13 10 10 9 7 6 6 5 5 4 4 4 3 2 2 3 3 3 3 3 4 5 8 11 13 14 13 10 6 4 3 2 3 7 10 12 13 14 16 20 21 19 20 24 24 20 17 14 12 12 12 12 13 15 16 16 16 17 22 32 39 42 41 40 40 40
11 11 14 16 17 17 17 14 12 12 11 10 9 9 7 6 7 6 5 5 5 4 4 4 3 3 3 3 3 4 5 8 12 14 15 13 9 5 4 3 4 8 12 14 16 17 19 23 24 23 23 25 25 24 22 18 14 12 13 13 14 16 16 17 17 17 16 19 25 32 37 40 40 39
10 11 15 17 17 18 17 12 10 12 12 10 10 10 9 8 8 7 7 7 6 6 6 5 5 4 4 3 3 3 4 6 9 13 16 15 11 7 5 3 6 12 16 17 18 20 23 27 28 25 22 23 25 27 28 24 20 16 13 12 14 17 17 16 14 14 15 15 16 19 25 31 36 38
11 12 13 14 15 16 15 11 9 10 11 11 11 9 9 10 9 8 9 9 8 7 7 7 6 6 6 5 4 3 5 6 7 12 16 15 11 9 6 5 10 17 19 18 19 23 27 31 34 33 29 27 27 30 31 28 24 19 15 13 13 14 15 15 14 12 12 13 13 15 18 20 24 29
12 12 11 11 12 13 14 13 11 11 12 12 11 11 11 11 9 9 9 9 9 9 8 8 8 8 8 9 7 5 6 6 7 11 15 14 12 9 6 8 16 21 18 15 17 21 26 30 35 37 35 31 29 29 30 28 24 18 12 10 13 15 14 13 12 12 11 11 13 14 15 15 17 20
11 10 10 10 10 10 11 11 12 14 16 14 11 12 14 12 9 9 9 9 9 9 8 9 9 9 11 12 11 9 9 7 7 11 14 13 11 8 7 13 21 20 14 12 14 16 17 21 26 30 31 29 28 28 27 24 20 16 12 10 12 15 15 13 13 12 10 10 11 12 13 14 15 16
11 10 9 9 8 8 10 12 14 15 15 13 12 14 17 15 11 10 9 9 9 9 9 9 9 10 13 14 13 12 11 8 8 11 14 13 10 8 9 17 22 17 10 10 12 11 11 12 13 15 16 17 18 19 18 16 14 12 11 12 13 13 13 14 14 13 12 11 10 9 10 11 11 11
Height
5391 5390 5389 5388 5387 5385 5384 5384 5383 5382 5381 5380 5378 5377 5377 5377 5378 5378 5377 5376 5375 5375 5377 5380 5384 5390 5396 5401 5407 5414 5418 5423 5429 5435 5441 5447 5453 5458 5463 5469 5474 5479 5485 5491 5496 5503 5510 5518 5525 5533 5542 5550 5557 5562 5566 5571 5578 5584 5589 5594 5599 5604 5608 5610 5616 5623 5630 5638 5644 5648 5651 5653 5654 5658
5384 5384 5382 5381 5380 5379 5378 5377 5376 5376 5375 5374 5372 5371 5371 5372 5373 5373 5373 5372 5371 5371 5372 5374 5378 5383 5389 5395 5401 5406 5411 5416 5421 5427 5433 5440 5446 5452 5458 5463 5468 5473 5479 5485 5490 5496 5503 5509 5517 5526 5534 5543 5550 5557 5562 5566 5571 5575 5580 5585 5590 5595 5599 5602 5607 5612 5619 5626 5631 5635 5639 5642 5646 5651
5377 5377 5376 5375 5374 5372 5372 5371 5370 5370 5369 5368 5367 5366 5365 5366 5367 5367 5368 5369 5368 5366 5367 5369 5372 5377 5382 5387 5393 5398 5404 5409 5414 5419 5426 5432 5438 5445 5451 5457 5462 5467 5472 5478 5483 5489 5495 5502 5510 5518 5527 5534 5542 5550 5556 5561 5565 5568 5572 5577 5582 5587 5592 5595 5599 5604 5609 5615 5620 5624 5628 5631 5635 5641
5370 5370 5369 5368 5367 5366 5366 5365 5364 5364 5363 5363 5361 5360 5360 5360 5361 5362 5363 5365 5364 5362 5363 5364 5366 5370 5374 5380 5385 5391 5396 5401 5407 5412 5419 5425 5430 5437 5443 5449 5455 5461 5466 5471 5476 5481 5488 5495 5502 5510 5518 5526 5534 5541 5548 5554 5559 5562 5566 5570 5575 5580 5584 5588 5592 5597 5601 5607 5610 5613 5618 5621 5624 5629
5363 5363 5362 5362 5361 5360 5360 5359 5358 5358 5357 5357 5356 5355 5354 5354 5355 5356 5357 5359 5361 5359 5359 5359 5360 5363 5367 5372 5377 5382 5388 5393 5399 5405 5411 5417 5423 5428 5435 5442 5448 5454 5459 5465 5470 5474 5480 5486 5493 5500 5508 5517 5525 5532 5538 5545 5553 5558 5561 5565 5568 5572 5577 5581 5586 5590 5594 5599 5603 5605 5608 5613 5616 5619
5356 5356 5355 5355 5355 5355 5355 5354 5353 5352 5352 5352 5351 5349 5349 5349 5349 5350 5352 5354 5356 5356 5355 5355 5356 5357 5360 5365 5369 5374 5379 5385 5391 5398 5403 5409 5415 5421 5428 5434 5440 5446 5452 5458 5463 5468 5473 5478 5485 5492 5499 5507 5515 5522 5528 5535 5545 5553 5557 5559 5562 5565 5569 5574 5578 5582 5587 5591 5596 5599 5601 5605 5609 5613
5349 5349 5348 5348 5348 5349 5349 5348 5347 5347 5347 5346 5346 5344 5343 5343 5344 5345 5346 5348 5350 5351 5351 5352 5352 5352 5354 5357 5362 5366 5372 5377 5383 5389 5395 5401 5407 5414 5420 5427 5432 5438 5444 5450 5456 5462 5467 5472 5478 5484 5490 5498 5505 5513 5519 5526 5536 5545 5549 5553 5557 5559 5563 5566 5570 5575 5579 5584 5589 5593 5597 5599 5602 5605
5341 5341 5341 5341 5342 5342 5342 5342 5342 5342 5341 5341 5340 5339 5338 5338 5338 5340 5341 5343 5345 5346 5347 5347 5348 5349 5350 5351 5354 5359 5364 5369 5374 5380 5387 5393 5400 5407 5413 5419 5425 5431 5437 5442 5448 5454 5460 5465 5470 5476 5482 5489 5496 5503 5510 5517 5525 5534 5540 5545 5550 5554 5557 5560 5563 5568 5572 5577 5582 5587 5591 5595 5597 5599
5334 5334 5334 5334 5335 5336 5336 5336 5336 5336 5336 5335 5335 5334 5333 5333 5333 5334 5336 5337 5339 5341 5342 5343 5344 5345 5346 5347 5348 5351 5356 5361 5366 5372 5377 5384 5392 5398 5405 5412 5418 5424 5429 5435 5440 5446 5451 5457 5462 5468 5473 5479 5486 5494 5501 5508 5515 5523 5531 5538 5542 5546 5550 5554 5557 5561 5566 5570 5576 5580 5584 5588 5592 5595
5327 5327 5327 5328 5329 5330 5330 5330 5331 5331 5330 5330 5330 5329 5329 5328 5328 5329 5331 5332 5333 5335 5337 5338 5339 5341 5342 5344 5344 5345 5348 5353 5358 5363 5369 5375 5382 5389 5396 5403 5410 5416 5421 5427 5432 5438 5443 5449 5454 5459 5465 5471 5478 5484 5491 5499 5506 5513 5521 5529 5535 5539 5543 5547 5551 5555 5560 5564 5568 5573 5577 5581 5585 5590
5319 5320 5321 5321 5322 5323 5324 5325 5325 5325 5325 5325 5325 5325 5324 5324 5324 5324 5325 5327 5328 5330 5331 5333 5334 5336 5338 5340 5340 5340 5341 5345 5349 5354 5360 5365 5371 5380 5388 5395 5401 5407 5413 5419 5424 5429 5435 5440 5446 5451 5457 5463 5470 5476 5482 5490 5497 5504 5512 5520 5527 5532 5535 5539 5544 5549 5554 5558 5561 5566 5570 5574 5579 5584
5312 5313 5314 5315 5315 5316 5318 5319 5320 5320 5320 5320 5320 5320 5320 5319 5319 5320 5320 5322 5323 5325 5326 5328 5329 5331 5333 5335 5336 5336 5337 5339 5341 5345 5350 5356 5362 5370 5379 5386 5392 5398 5404 5408 5414 5419 5425 5431 5437 5442 5448 5455 5461 5466 5472 5480 5488 5495 5502 5510 5518 5524 5528 5532 5536 5541 5546 5551 5555 5558 5563 5568 5572 5577
5305 5307 5308 5308 5309 5310 5312 5313 5314 5314 5315 5315 5316 5316 5316 5315 5315 5316 5316 5317 5319 5320 5321 5323 5324 5326 5328 5329 5331 5332 5333 5334 5335 5337 5341 5347 5352 5359 5368 5375 5381 5386 5391 5396 5402 5409 5415 5422 5427 5433 5439 5446 5452 5457 5463 5471 5479 5486 5493 5500 5507 5515 5520 5524 5528 5533 5538 5543 5548 5551 5556 5561 5566 5570
5298 5300 5301 5302 5303 5304 5305 5307 5308 5309 5310 5310 5311 5311 5312 5311 5311 5312 5312 5313 5314 5315 5317 5318 5319 5321 5322 5324 5326 5328 5329 5329 5329 5330 5332 5336 5341 5347 5354 5362 5368 5373 5378 5384 5391 5398 5405 5412 5419 5425 5431 5437 5443 5449 5456 5463 5470 5477 5483 5490 5497 5504 5511 5515 5520 5525 5530 5536 5540 5544 5548 5553 5558 5563
5291 5293 5294 5295 5297 5298 5299 5300 5302 5303 5304 5305 5306 5307 5307 5307 5307 5308 5308 5309 5310 5311 5312 5313 5314 5316 5317 5319 5321 5322 5323 5324 5324 5325 5325 5327 5330 5335 5341 5349 5353 5357 5365 5374 5382 5389 5397 5405 5412 5418 5424 5430 5434 5440 5448 5454 5460 5466 5473 5480 5487 5494 5501 5506 5510 5516 5522 5528 5533 5537 5541 5545 5550 5555
5285 5286 5287 5289 5291 5293 5293 5294 5296 5297 5298 5300 5301 5302 5303 5303 5304 5304 5305 5306 5307 5307 5308 5309 5310 5312 5313 5315 5316 5317 5318 5318 5319 5320 5320 5321 5322 5325 5330 5337 5340 5345 5355 5366 5373 5382 5390 5395 5401 5408 5414 5421 5426 5432 5438 5444 5449 5456 5463 5470 5477 5484 5492 5498 5502 5507 5513 5520 5525 5528 5532 5537 5542 5547
5278 5279 5281 5283 5285 5287 5288 5289 5290 5291 5293 5294 5296 5297 5298 5299 5300 5301 5301 5302 5303 5304 5305 5306 5307 5308 5309 5310 5311 5312 5313 5313 5313 5314 5315 5316 5317 5317 5320 5324 5327 5332 5343 5355 5364 5372 5378 5382 5390 5398 5405 5411 5417 5423 5428 5433 5439 5447 5453 5460 5468 5475 5482 5489 5494 5498 5503 5510 5515 5519 5523 5527 5533 5538
5271 5273 5274 5276 5279 5281 5282 5283 5284 5286 5287 5289 5290 5292 5293 5295 5296 5297 5298 5299 5299 5300 5301 5302 5303 5304 5305 5305 5306 5307 5307 5307 5308 5309 5310 5310 5311 5310 5311 5313 5316 5319 5329 5341 5350 5360 5367 5372 5380 5388 5393 5400 5407 5413 5419 5424 5430 5438 5444 5451 5459 5466 5473 5479 5486 5491 5495 5500 5505 5510 5514 5518 5523 5529
5264 5266 5268 5270 5272 5275 5277 5278 5279 5280 5282 5283 5284 5286 5288 5290 5291 5293 5294 5295 5296 5296 5297 5297 5298 5299 5300 5300 5301 5302 5302 5302 5302 5304 5304 5304 5304 5305 5304 5305 5306 5309 5316 5325 5335 5346 5355 5360 5368 5377 5382 5389 5397 5404 5410 5415 5421 5428 5435 5442 5448 5455 5461 5468 5475 5481 5486 5491 5496 5500 5504 5508 5513 5518
5257 5259 5261 5264 5266 5269 5271 5272 5274 5275 5276 5277 5279 5280 5283 5285 5287 5288 5289 5291 5291 5292 5292 5293 5293 5294 5295 5296 5297 5297 5297 5297 5298 5299 5298 5298 5298 5299 5298 5298 5298 5299 5304 5312 5322 5333 5341 5347 5358 5368 5373 5379 5387 5393 5398 5404 5410 5417 5423 5430 5436 5442 5449 5456 5463 5469 5475 5481 5486 5490 5493 5497 5501 5507
5250 5252 5254 5257 5260 5262 5265 5267 5268 5270 5271 5272 5273 5275 5277 5280 5282 5283 5285 5286 5287 5287 5288 5288 5289 5289 5290 5291 5292 5292 5292 5292 5293 5294 5293 5293 5293 5292 5292 5292 5292 5292 5295 5301 5309 5317 5325 5334 5345 5355 5361 5368 5375 5381 5387 5394 5400 5407 5413 5418 5425 5432 5439 5445 5451 5457 5463 5470 5476 5481 5485 5488 5491 5494
5243 5245 5248 5251 5254 5256 5259 5261 5263 5264 5265 5266 5268 5269 5272 5275 5276 5278 5280 5282 5282 5283 5283 5284 5285 5285 5286 5287 5287 5287 5288 5288 5288 5288 5288 5288 5288 5287 5286 5286 5285 5285 5287 5290 5295 5303 5311 5318 5328 5339 5348 5356 5364 5371 5377 5384 5391 5397 5402 5408 5414 5421 5428 5434 5441 5447 5453 5459 5465 5471 5476 5480 5482 5486
5236 5238 5241 5245 5248 5250 5252 5255 5258 5259 5260 5261 5262 5265 5267 5269 5270 5273 5276 5277 5277 5278 5279 5279 5280 5281 5282 5282 5283 5283 5283 5284 5284 5283 5283 5284 5283 5282 5282 5282 5280 5279 5280 5281 5285 5291 5297 5303 5312 5323 5333 5342 5351 5359 5366 5373 5380 5385 5390 5397 5404 5410 5417 5423 5430 5436 5443 5449 5455 5460 5465 5469 5473 5478
5229 5231 5234 5238 5242 5244 5247 5250 5252 5254 5255 5256 5257 5260 5262 5263 5265 5269 5271 5272 5272 5274 5274 5275 5276 5276 5278 5279 5279 5279 5280 5280 5280 5279 5279 5280 5279 5278 5278 5277 5276 5274 5274 5275 5278 5282 5286 5292 5300 5309 5317 5325 5335 5344 5352 5359 5366 5372 5379 5386 5392 5399 5406 5412 5419 5425 5432 5438 5444 5449 5454 5458 5463 5469
5222 5225 5228 5232 5236 5238 5241 5244 5247 5249 5250 5251 5253 5256 5257 5258 5261 5264 5266 5266 5267 5269 5270 5271 5272 5273 5274 5275 5275 5275 5276 5276 5276 5276 5276 5276 5276 5275 5274 5274 5272 5271 5270 5270 5271 5274 5277 5282 5289 5296 5302 5309 5318 5327 5337 5346 5353 5360 5368 5375 5382 5388 5394 5400 5407 5414 5421 5426 5432 5438 5444 5449 5453 5459
5215 5218 5221 5226 5229 5232 5235 5238 5241 5244 5245 5246 5248 5251 5252 5254 5257 5259 5260 5261 5263 5264 5265 5267 5268 5269 5270 5271 5272 5272 5272 5272 5273 5272 5272 5273 5272 5271 5271 5270 5270 5269 5267 5266 5267 5268 5271 5274 5278 5283 5288 5296 5305 5314 5323 5332 5341 5349 5357 5365 5372 5378 5385 5391 5397 5403 5408 5414 5421 5428 5433 5438 5443 5449
5208 5211 5215 5219 5223 5226 5229 5233 5236 5238 5240 5242 5244 5245 5248 5251 5253 5254 5256 5257 5259 5260 5262 5263 5264 5265 5267 5268 5268 5268 5269 5269 5270 5269 5269 5270 5269 5268 5268 5268 5267 5267 5266 5265 5264 5265 5266 5269 5272 5276 5281 5288 5296 5304 5310 5319 5327 5336 5345 5354 5361 5368 5374 5380 5386 5390 5395 5402 5409 5416 5422 5427 5432 5438
5202 5205 5209 5213 5217 5220 5223 5227 5230 5233 5236 5238 5239 5241 5244 5247 5249 5250 5252 5253 5255 5256 5257 5259 5260 5262 5263 5264 5265 5265 5266 5266 5267 5267 5266 5266 5266 5266 5266 5266 5266 5265 5265 5264 5263 5263 5264 5266 5268 5272 5276 5282 5289 5295 5301 5308 5314 5322 5332 5342 5349 5357 5364 5369 5373 5377 5383 5390 5397 5403 5409 5415 5421 5427
5195 5199 5202 5206 5210 5214 5217 5221 5225 5228 5231 5234 5235 5237 5240 5242 5244 5246 5248 5250 5251 5252 5253 5255 5256 5258 5259 5261 5261 5262 5263 5263 5264 5263 5263 5263 5263 5263 5263 5263 5264 5264 5263 5263 5263 5263 5263 5264 5266 5269 5272 5277 5282 5287 5293 5298 5303 5310 5319 5328 5336 5344 5352 5357 5360 5365 5372 5378 5385 5390 5396 5402 5408 5413
5189 5192 5196 5200 5204 5208 5212 5216 5220 5224 5227 5230 5231 5233 5235 5238 5240 5243 5244 5246 5248 5249 5250 5251 5252 5254 5255 5257 5258 5259 5260 5260 5261 5261 5261 5261 5261 5261 5261 5261 5261 5262 5262 5262 5262 5263 5263 5263 5264 5266 5269 5272 5276 5280 5285 5289 5294 5300 5308 5316 5324 5331 5337 5343 5348 5354 5361 5367 5372 5378 5383 5389 5394 5400
5183 5186 5190 5193 5198 5202 5206 5210 5215 5219 5222 5225 5227 5230 5232 5234 5236 5239 5240 5242 5244 5246 5247 5248 5249 5250 5252 5253 5254 5256 5256 5257 5257 5258 5258 5258 5258 5258 5258 5259 5259 5259 5260 5260 5261 5261 5262 5262 5263 5264 5266 5269 5271 5274 5277 5282 5287 5292 5298 5305 5311 5317 5323 5330 5336 5342 5349 5355 5360 5366 5371 5376 5381 5387
5177 5180 5183 5187 5192 5197 5201 5205 5210 5215 5218 5220 5223 5226 5228 5230 5233 5235 5237 5239 5240 5242 5243 5245 5246 5247 5248 5250 5251 5252 5253 5254 5254 5255 5255 5256 5256 5256 5256 5256 5256 5257 5257 5258 5259 5259 5260 5261 5262 5263 5264 5266 5268 5270 5272 5276 5280 5284 5289 5294 5300 5305 5311 5317 5323 5330 5336 5342 5348 5353 5358 5364 5369 5374
5169 5173 5176 5181 5186 5191 5196 5201 5207 5211 5213 5216 5220 5223 5225 5227 5229 5231 5233 5235 5237 5238 5240 5241 5243 5244 5245 5246 5247 5248 5249 5250 5251 5251 5252 5253 5253 5253 5254 5254 5253 5253 5254 5255 5256 5257 5257 5258 5259 5260 5261 5263 5264 5266 5269 5271 5274 5277 5281 5285 5290 5295 5300 5305 5312 5319 5324 5329 5335 5340 5345 5351 5356 5361
5163 5167 5171 5176 5181 5186 5191 5197 5201 5205 5208 5211 5215 5218 5221 5223 5226 5228 5230 5232 5233 5235 5236 5238 5239 5240 5241 5243 5244 5245 5246 5247 5247 5248 5249 5249 5250 5251 5251 5251 5251 5251 5251 5251 5252 5253 5254 5255 5256 5257 5258 5260 5261 5263 5265 5266 5268 5271 5274 5277 5281 5286 5290 5295 5301 5308 5312 5317 5322 5327 5333 5339 5344 5349
5158 5163 5167 5171 5176 5181 5187 5192 5196 5200 5203 5207 5210 5214 5217 5219 5222 5224 5226 5228 5230 5232 5233 5234 5236 5237 5238 5239 5240 5241 5242 5243 5244 5244 5245 5246 5247 5248 5248 5248 5248 5248 5248 5248 5248 5249 5250 5251 5252 5253 5255 5256 5257 5259 5260 5262 5263 5265 5268 5270 5274 5277 5281 5286 5292 5296 5300 5305 5310 5316 5321 5326 5331 5336
5155 5159 5163 5166 5171 5177 5182 5187 5191 5195 5198 5202 5206 5210 5213 5215 5218 5220 5223 5224 5226 5228 5230 5231 5232 5234 5235 5235 5236 5237 5238 5239 5240 5241 5241 5242 5243 5244 5244 5245 5245 5246 5246 5245 5245 5245 5245 5246 5247 5248 5250 5252 5253 5255 5256 5257 5258 5260 5262 5264 5267 5269 5273 5277 5281 5285 5290 5294 5300 5305 5310 5314 5319 5324
5151 5155 5158 5162 5168 5173 5178 5182 5187 5191 5193 5197 5201 5205 5208 5211 5214 5216 5218 5220 5222 5224 5226 5228 5229 5230 5231 5232 5233 5234 5234 5235 5236 5237 5237 5238 5239 5240 5240 5241 5242 5242 5242 5242 5242 5241 5241 5242 5241 5242 5244 5246 5248 5250 5251 5252 5253 5256 5257 5259 5261 5263 5266 5269 5273 5277 5280 5285 5289 5294 5298 5303 5307 5311
5147 5151 5154 5159 5164 5169 5173 5177 5182 5185 5189 5193 5197 5200 5204 5207 5209 5211 5214 5216 5218 5220 5222 5224 5225 5227 5228 5229 5230 5230 5231 5232 5232 5232 5233 5234 5235 5235 5236 5237 5237 5238 5238 5238 5238 5237 5237 5237 5237 5236 5237 5239 5242 5245 5246 5247 5249 5250 5251 5253 5255 5257 5260 5264 5267 5269 5272 5275 5279 5283 5287 5292 5296 5299
5143 5147 5151 5156 5161 5165 5169 5173 5177 5181 5185 5189 5192 5196 5199 5202 5205 5207 5210 5212 5214 5216 5218 5220 5221 5223 5224 5225 5226 5227 5228 5228 5228 5229 5229 5230 5230 5231 5232 5232 5233 5233 5233 5233 5234 5233 5232 5232 5231 5230 5231 5233 5236 5238 5239 5241 5243 5244 5245 5247 5249 5252 5256 5259 5262 5263 5266 5269 5271 5274 5278 5282 5286 5289
5140 5144 5148 5152 5157 5161 5164 5168 5172 5176 5180 5184 5187 5191 5195 5197 5200 5203 5205 5207 5209 5212 5214 5215 5217 5218 5220 5221 5222 5223 5224 5225 5225 5225 5226 5226 5226 5227 5228 5228 5229 5229 5228 5228 5228 5227 5227 5226 5226 5225 5225 5226 5228 5230 5231 5234 5237 5239 5241 5243 5246 5249 5253 5256 5257 5259 5262 5263 5264 5267 5271 5275 5278 5281
5137 5142 5146 5149 5153 5157 5160 5164 5167 5171 5175 5179 5183 5186 5189 5192 5195 5198 5200 5202 5205 5207 5209 5211 5212 5214 5215 5217 5218 5219 5220 5221 5222 5222 5222 5223 5223 5224 5224 5225 5225 5225 5224 5224 5223 5223 5222 5221 5220 5219 5219 5220 5222 5224 5226 5230 5234 5236 5238 5240 5243 5246 5249 5252 5253 5255 5257 5258 5260 5263 5266 5268 5271 5274
5135 5139 5143 5147 5150 5153 5156 5159 5163 5166 5170 5174 5178 5181 5184 5187 5190 5193 5195 5197 5200 5202 5204 5206 5208 5209 5211 5212 5214 5215 5216 5217 5218 5218 5219 5219 5220 5220 5221 5221 5221 5221 5220 5220 5220 5219 5218 5216 5215 5215 5215 5217 5219 5221 5223 5226 5230 5233 5235 5237 5240 5243 5245 5248 5250 5252 5253 5255 5256 5259 5261 5263 5265 5267
5132 5136 5140 5143 5146 5149 5152 5155 5159 5162 5166 5169 5172 5175 5179 5182 5185 5187 5190 5192 5195 5197 5199 5201 5203 5204 5206 5208 5209 5211 5212 5213 5214 5215 5215 5215 5216 5217 5218 5218 5218 5218 5218 5217 5217 5216 5215 5214 5213 5213 5213 5214 5216 5218 5220 5223 5226 5229 5232 5234 5236 5239 5242 5244 5246 5248 5250 5251 5253 5255 5257 5258 5260 5262
5130 5133 5136 5139 5142 5145 5148 5152 5155 5158 5161 5165 5167 5170 5173 5177 5180 5182 5185 5187 5190 5192 5194 5196 5198 5199 5201 5203 5205 5206 5207 5209 5210 5211 5211 5212 5212 5213 5214 5215 5215 5215 5215 5215 5215 5214 5214 5213 5212 5212 5212 5213 5215 5217 5219 5221 5224 5227 5229 5231 5233 5236 5238 5240 5242 5245 5246 5248 5250 5252 5253 5255 5256 5257
5128 5131 5133 5136 5139 5142 5145 5148 5151 5154 5157 5160 5162 5165 5169 5172 5174 5177 5179 5182 5184 5187 5189 5191 5193 5194 5196 5198 5200 5202 5203 5204 5206 5207 5207 5208 5209 5210 5211 5211 5212 5212 5213 5213 5213 5213 5213 5212 5212 5212 5213 5214 5215 5217 5218 5220 5223 5225 5227 5229 5231 5233 5235 5237 5239 5241 5243 5245 5247 5248 5250 5251 5252 5253